When you browse on this site, cookies collect data to enhance your experience and personalize the content and advertising you see.
Visit our Privacy Policy to learn more. By continuing to use the site, you agree to this use of cookies and data.
  • In Latvia
  • List of Countries
  • For 7 days
  • Water Temperature
  • Satellite Maps
  • Weather Map
  • Weather Widgets
  • user-avatar
    Login

    Hourly Weather Malowice

    Today, 21 February, Thursday

    Time Temperature Precipitation Wind Pressure Humidity
    00:00 +5°C° 0 mm 3 mps 760 mmHg 80%
    01:00 +5°C° 0 mm 3 mps 759 mmHg 81%
    02:00 +4°C° 0 mm 3 mps 759 mmHg 83%
    03:00 +4°C° 0 mm 3 mps 759 mmHg 84%
    04:00 +3°C° 0 mm 3 mps 759 mmHg 86%
    05:00 +3°C° 0 mm 3 mps 759 mmHg 86%
    06:00 +3°C° 0 mm 3 mps 759 mmHg 87%
    07:00 +3°C° 0 mm 4 mps 759 mmHg 87%
    08:00 +5°C° 0 mm 4 mps 759 mmHg 82%
    09:00 +6°C° 0 mm 5 mps 759 mmHg 78%
    10:00 +7°C° 0 mm 5 mps 759 mmHg 73%
    11:00 +6°C° 0.5 mm 5 mps 759 mmHg 75%
    12:00 +6°C° 0.5 mm 5 mps 759 mmHg 76%
    13:00 +6°C° 0.5 mm 5 mps 758 mmHg 77%
    14:00 +6°C° 0.9 mm 5 mps 758 mmHg 78%
    15:00 +6°C° 0.9 mm 4 mps 758 mmHg 79%
    16:00 +6°C° 0.9 mm 4 mps 758 mmHg 80%
    17:00 +6°C° 0.2 mm 4 mps 758 mmHg 81%
    18:00 +6°C° 0.2 mm 4 mps 758 mmHg 82%
    19:00 +6°C° 0.2 mm 4 mps 757 mmHg 83%
    20:00 +6°C° 0.7 mm 5 mps 757 mmHg 85%
    21:00 +6°C° 0.7 mm 5 mps 757 mmHg 88%
    22:00 +6°C° 0.7 mm 5 mps 757 mmHg 91%
    23:00 +6°C° 0.7 mm 5 mps 757 mmHg 92%

    Tomorrow, 22 February, Friday

    Time Temperature Precipitation Wind Pressure Humidity
    00:00 +6°C° 0.7 mm 5 mps 757 mmHg 92%
    01:00 +6°C° 0.7 mm 5 mps 757 mmHg 93%
    02:00 +6°C° 0.6 mm 5 mps 758 mmHg 93%
    03:00 +6°C° 0.6 mm 5 mps 758 mmHg 92%
    04:00 +5°C° 0.6 mm 6 mps 759 mmHg 91%
    05:00 +3°C° 0.1 mm 6 mps 760 mmHg 87%
    06:00 +1°C° 0.1 mm 6 mps 761 mmHg 82%
    07:00 -1°C° 0.1 mm 7 mps 762 mmHg 78%
    08:00 -1°C° 0 mm 6 mps 764 mmHg 72%
    09:00 -2°C° 0 mm 6 mps 765 mmHg 66%
    10:00 -2°C° 0 mm 6 mps 767 mmHg 60%
    11:00 0°C° 0 mm 5 mps 767 mmHg 56%
    12:00 0°C° 0 mm 5 mps 768 mmHg 51%
    13:00 0°C° 0 mm 5 mps 769 mmHg 47%
    14:00 0°C° 0 mm 5 mps 769 mmHg 45%
    15:00 0°C° 0 mm 5 mps 769 mmHg 44%
    16:00 0°C° 0 mm 4 mps 770 mmHg 42%
    17:00 -1°C° 0 mm 4 mps 770 mmHg 46%
    18:00 -1°C° 0 mm 3 mps 771 mmHg 49%
    19:00 -2°C° 0 mm 2 mps 772 mmHg 53%
    20:00 -2°C° 0 mm 2 mps 772 mmHg 52%
    21:00 -2°C° 0 mm 2 mps 773 mmHg 52%
    22:00 -2°C° 0 mm 2 mps 773 mmHg 51%
    23:00 -2°C° 0 mm 2 mps 773 mmHg 50%

    Day after tomorrow, 23 February, Saturday

    Time Temperature Precipitation Wind Pressure Humidity
    00:00 -3°C° 0 mm 2 mps 774 mmHg 49%
    01:00 -3°C° 0 mm 2 mps 774 mmHg 48%
    02:00 -3°C° 0 mm 2 mps 774 mmHg 47%
    03:00 -3°C° 0 mm 2 mps 774 mmHg 47%
    04:00 -3°C° 0 mm 2 mps 774 mmHg 46%
    05:00 -3°C° 0 mm 2 mps 774 mmHg 46%
    06:00 -3°C° 0 mm 2 mps 774 mmHg 45%
    07:00 -1°C° 0 mm 1 mps 774 mmHg 44%
    08:00 -3°C° 0 mm 2 mps 774 mmHg 40%
    09:00 -2°C° 0 mm 2 mps 774 mmHg 36%
    10:00 -1°C° 0 mm 2 mps 775 mmHg 31%
    11:00 -1°C° 0 mm 2 mps 774 mmHg 29%
    12:00 +1°C° 0 mm 2 mps 774 mmHg 26%
    13:00 +2°C° 0 mm 2 mps 774 mmHg 24%
    14:00 +2°C° 0 mm 2 mps 773 mmHg 25%
    15:00 +3°C° 0 mm 1 mps 773 mmHg 26%
    16:00 +3°C° 0 mm 1 mps 773 mmHg 26%
    17:00 +2°C° 0 mm 1 mps 773 mmHg 29%
    18:00 +1°C° 0 mm 1 mps 773 mmHg 32%
    19:00 0°C° 0 mm 1 mps 773 mmHg 35%
    20:00 -2°C° 0 mm 2 mps 772 mmHg 35%
    21:00 -2°C° 0 mm 2 mps 772 mmHg 36%
    22:00 -2°C° 0 mm 2 mps 772 mmHg 37%
    23:00 -2°C° 0 mm 2 mps 772 mmHg 36%

    24 February, Sunday

    Time Temperature Precipitation Wind Pressure Humidity
    00:00 -2°C° 0 mm 2 mps 772 mmHg 35%
    01:00 +1°C° 0 mm 1 mps 772 mmHg 35%
    02:00 0°C° 0 mm 1 mps 772 mmHg 34%
    03:00 0°C° 0 mm 1 mps 771 mmHg 34%
    04:00 0°C° 0 mm 1 mps 771 mmHg 33%
    05:00 0°C° 0 mm 1 mps 771 mmHg 33%
    06:00 0°C° 0 mm 1 mps 771 mmHg 32%
    07:00 0°C° 0 mm 1 mps 771 mmHg 32%
    08:00 +2°C° 0 mm 1 mps 771 mmHg 30%
    09:00 +3°C° 0 mm 1 mps 771 mmHg 28%
    10:00 +3°C° 0 mm 2 mps 771 mmHg 27%
    11:00 +4°C° 0 mm 2 mps 770 mmHg 27%
    12:00 +6°C° 0 mm 2 mps 770 mmHg 27%
    13:00 +7°C° 0 mm 3 mps 770 mmHg 27%
    14:00 +6°C° 0 mm 2 mps 770 mmHg 33%
    15:00 +6°C° 0 mm 2 mps 770 mmHg 38%
    16:00 +6°C° 0 mm 2 mps 769 mmHg 44%
    17:00 +5°C° 0 mm 2 mps 770 mmHg 47%
    18:00 +3°C° 0 mm 2 mps 770 mmHg 51%
    19:00 +2°C° 0 mm 2 mps 770 mmHg 55%
    20:00 +2°C° 0 mm 2 mps 770 mmHg 57%
    21:00 +2°C° 0 mm 2 mps 770 mmHg 60%
    22:00 +1°C° 0 mm 2 mps 770 mmHg 62%
    23:00 +1°C° 0 mm 2 mps 770 mmHg 64%

    25 February, Monday

    Time Temperature Precipitation Wind Pressure Humidity
    00:00 +1°C° 0 mm 2 mps 770 mmHg 66%
    01:00 +1°C° 0 mm 2 mps 770 mmHg 67%
    02:00 +1°C° 0 mm 2 mps 770 mmHg 68%
    03:00 +1°C° 0 mm 2 mps 770 mmHg 69%
    04:00 0°C° 0 mm 3 mps 770 mmHg 70%
    05:00 0°C° 0 mm 3 mps 770 mmHg 71%
    06:00 0°C° 0 mm 3 mps 770 mmHg 72%
    07:00 0°C° 0 mm 3 mps 770 mmHg 73%
    08:00 +1°C° 0 mm 3 mps 770 mmHg 70%
    09:00 +2°C° 0 mm 3 mps 770 mmHg 66%
    10:00 +4°C° 0 mm 3 mps 770 mmHg 62%
    11:00 +5°C° 0 mm 3 mps 770 mmHg 60%
    12:00 +8°C° 0 mm 3 mps 770 mmHg 57%
    13:00 +9°C° 0 mm 3 mps 769 mmHg 55%
    14:00 +9°C° 0 mm 3 mps 769 mmHg 56%
    15:00 +9°C° 0 mm 3 mps 769 mmHg 57%
    16:00 +9°C° 0 mm 2 mps 769 mmHg 58%
    17:00 +8°C° 0 mm 2 mps 769 mmHg 63%
    18:00 +7°C° 0 mm 2 mps 769 mmHg 67%
    19:00 +6°C° 0 mm 2 mps 769 mmHg 72%
    20:00 +5°C° 0 mm 2 mps 769 mmHg 75%
    21:00 +5°C° 0 mm 2 mps 768 mmHg 77%
    22:00 +5°C° 0 mm 2 mps 768 mmHg 80%
    23:00 +3°C° 0 mm 3 mps 768 mmHg 80%

    26 February, Tuesday

    Time Temperature Precipitation Wind Pressure Humidity
    00:00 +3°C° 0 mm 3 mps 767 mmHg 81%
    01:00 +3°C° 0 mm 3 mps 767 mmHg 82%
    02:00 +3°C° 0 mm 3 mps 767 mmHg 83%
    03:00 +3°C° 0 mm 3 mps 766 mmHg 84%
    04:00 +3°C° 0 mm 3 mps 766 mmHg 84%
    05:00 +3°C° 0 mm 4 mps 765 mmHg 84%
    06:00 +3°C° 0 mm 4 mps 765 mmHg 83%
    07:00 +3°C° 0 mm 4 mps 764 mmHg 83%
    08:00 +3°C° 0 mm 5 mps 764 mmHg 78%
    09:00 +4°C° 0 mm 6 mps 764 mmHg 73%
    10:00 +7°C° 0 mm 6 mps 764 mmHg 68%
    11:00 +8°C° 0 mm 6 mps 763 mmHg 63%
    12:00 +9°C° 0 mm 6 mps 763 mmHg 58%
    13:00 +10°C° 0 mm 7 mps 762 mmHg 52%
    14:00 +10°C° 0 mm 6 mps 762 mmHg 54%
    15:00 +11°C° 0 mm 6 mps 762 mmHg 56%
    16:00 +11°C° 0 mm 6 mps 761 mmHg 57%
    17:00 +10°C° 0 mm 5 mps 762 mmHg 63%
    18:00 +9°C° 0 mm 5 mps 762 mmHg 68%
    19:00 +8°C° 0 mm 4 mps 762 mmHg 74%
    20:00 +7°C° 0 mm 4 mps 763 mmHg 81%
    21:00 +7°C° 0 mm 3 mps 763 mmHg 87%
    22:00 +5°C° 0 mm 3 mps 763 mmHg 94%
    23:00 +5°C° 0 mm 2 mps 763 mmHg 95%
    Show more